Regional Weather Roundup
Issued by NWS State College, PA

Home | Current Version | Previous Version | Graphics & Text | Print | Product List | Glossary Off
Versions: 1 2 3 4 5 6 7 8 9 10 11 12 13 14 15 16 17 18 19 20 21 22 23 24 25 26 27 28 29 30 31 32 33 34 35 36 37 38 39 40 41 42 43 44 45 46 47 48 49 50

000
ASUS41 KCTP 281710
RWRCTP

REGIONAL WEATHER ROUNDUP
NATIONAL WEATHER SERVICE STATE COLLEGE PA
1200 PM EST WED JAN 28 2015

Note: "fair" indicates few or no clouds below 12,000 feet with no
significant weather and/or obstructions to visibility.

* = STATION THAT DOES NOT REPORT PRECIPITATION /E.G. RAIN...SNOW...ETC/
    THUNDER OR FOG.

PAZ002>004-007>009-013>016-020>023-029>032-281800-
WESTERN PENNSYLVANIA

CITY           SKY/WX    TMP DP  RH WIND       PRES   REMARKS
ERIE           SUNNY     20  11  68 W8        30.34F WCI  10
MEADVILLE      SUNNY     15   9  76 SW5       30.29S WCI   8
FRANKLIN*      SUNNY     18   7  62 CALM      30.29F
NEW CASTLE     FAIR      16   8  70 CALM      30.35F
BEAVER COUNTY  SUNNY     18   9  68 CALM      30.33S
BUTLER*        SUNNY     18   7  62 CALM      30.34F
PITTSBURGH INT MOSUNNY   16   9  74 W3        30.34S
PITTSBURGH     MOSUNNY   17   7  64 VRB5      30.33S WCI  10
INDIANA*       SUNNY     16  10  79 W9        30.33F WCI   4
LATROBE        MOSUNNY   18  10  73 W9        30.36S WCI   6
WASHINGTON CO* SUNNY     19  10  68 MISG      30.35F
$$

PAZ004>006-010>012-017>019-024>028-033>037-041-042-045-046-049>053-281800-
CENTRAL PENNSYLVANIA

CITY           SKY/WX    TMP DP  RH WIND       PRES   REMARKS
BRADFORD       SUNNY     18   2  49 W8        30.18S WCI   8
DUBOIS         SUNNY     15   7  70 SW10      30.22F WCI   2
CLEARFIELD     MIX PCPN  20   6  55 W10       30.24S WCI   9
JOHNSTOWN      SUNNY     13   6  74 NW13      30.19F WCI  -2
ALTOONA        SUNNY     19   6  57 NW13      30.23S WCI   6
STATE COLLEGE  SUNNY     23   5  46 W10       30.22F WCI  12
WILLIAMSPORT   SUNNY     24   4  42 W15       30.20F WCI  11
SELINSGROVE    SUNNY     27   2  34 N7        30.22F
FT INDIANTOWN  SUNNY     27   0  31 W13G24    30.17F
CAPITAL CITY   SUNNY     29   3  33 NW15      30.21F
HARRISBURG     SUNNY     27   4  37 NW14      30.20S
YORK           SUNNY     28   3  34 NW13      30.19
$$

PAZ038>040-043-044-047-048-054-055-060>062-067>071-281800-
EASTERN PENNSYLVANIA

CITY           SKY/WX    TMP DP  RH WIND       PRES   REMARKS
SCRANTON       MIX PCPN  22   5  48 NW13      30.13F WCI  10
MOUNT POCONO   SUNNY     18   4  54 NW18G30   30.00S WCI   2
ALLENTOWN      SUNNY     27   4  37 NW13G21   30.12F
QUAKERTOWN*    NOT AVBL
READING        SUNNY     26   4  38 NW13      30.16F WCI  15
LANCASTER      SUNNY     26   3  37 NW18G24   30.17S WCI  13
COATESVILLE    SUNNY     27   5  39 NW15G24   30.14S WCI  15
POTTSTOWN      SUNNY     25   2  37 W15G23    30.15S WCI  13
BLUE BELL      SUNNY     30   3  31 NW14G21   30.12F
DOYLESTOWN     SUNNY     26   6  42 NW17G26   30.10  WCI  13
WILLOW GROVE   NOT AVBL
NORTH PHILA    SUNNY     30   4  33 NW13G22   30.13F
PHILADELPHIA   SUNNY     30   2  30 NW21G26   30.14F
$$


USA.gov is the U.S. government's official web portal to all federal, state and local government web resources and services.